Weather History for Sulphur, LA

Change the Weather History Date:

Monday, April 8, 2013

  Actual Average (KLCH) Record (KLCH)
Temperature  
Mean Temperature 72 °F 66 °F  
Max Temperature 77 °F 76 °F 90 °F (1930)
Min Temperature 68 °F 56 °F 34 °F (1939)
Degree Days  
Heating Degree Days 0 2  
Month to date heating degree days 21  
Since 1 July heating degree days 1465  
Cooling Degree Days 8 4  
Month to date cooling degree days 25  
Year to date cooling degree days 97  
Growing Degree Days 22 (Base 50)    
Moisture  
Dew Point 65 °F    
Average Humidity 81    
Maximum Humidity 94    
Minimum Humidity 65    
Precipitation  
Precipitation 0.00 in 0.11 in 3.33 in (1921)
Month to date precipitation 0.85  
Year to date precipitation 13.20  
Snow  
Snow 0.00 in 0.00 in T in (1938)
Month to date snowfall 0.0  
Since 1 July snowfall 0.1  
Snow Depth -    
Sea Level Pressure  
Sea Level Pressure 29.91 in    
Wind  
Wind Speed 13 mph (SE)    
Max Wind Speed 23 mph    
Max Gust Speed 30 mph    
Visibility 10 miles    
Events      
T = Trace of Precipitation, MM = Missing Value Source: NWS Daily Summary

Daily Weather History Graph

Daily Weather History Graph

Search for Another Location

Airport:

Trip Planner

Search our weather history database for the weather conditions in past years. The results will help you decide how hot, cold, wet, or windy it might be!

Date:

Astronomy

Apr. 08, 2013 Rise Set
Actual Time 6:54 AM CDT 7:36 PM CDT
Civil Twilight 6:29 AM CDT 8:01 PM CDT
Nautical Twilight 6:01 AM CDT 8:29 PM CDT
Astronomical Twilight 5:32 AM CDT 8:58 PM CDT
Moon 5:38 AM CDT (4/8) 6:15 PM CDT (4/8)
Length of Visible Light 13h 31m
Length of Day
12h 42m
Waning Crescent, 3% of the Moon is Illuminated
Apr 8
Waning Crescent
Apr 10
New
Apr 18
First Quarter
Apr 25
Full
May 2
Last Quarter

Hourly Weather History & Observations

Time (CDT) Temp. Dew Point Humidity Pressure Visibility Wind Dir Wind Speed Gust Speed Precip Events Conditions
12:15 AM 68.0 °F 64.4 °F 88% 29.94 in 10.0 mi SSE 11.5 mph - N/A   Overcast
12:35 AM 68.0 °F 64.4 °F 88% 29.94 in 10.0 mi SE 13.8 mph - N/A   Overcast
12:55 AM 68.0 °F 64.4 °F 88% 29.94 in 10.0 mi SSE 12.7 mph - N/A   Overcast
1:15 AM 68.0 °F 64.4 °F 88% 29.94 in 10.0 mi SSE 12.7 mph - N/A   Overcast
1:35 AM 68.0 °F 64.4 °F 88% 29.93 in 10.0 mi SSE 11.5 mph - N/A   Overcast
1:55 AM 68.0 °F 64.4 °F 88% 29.93 in 10.0 mi SSE 11.5 mph - N/A   Overcast
2:15 AM 68.0 °F 64.4 °F 88% 29.93 in 10.0 mi SE 11.5 mph - N/A   Overcast
2:35 AM 68.0 °F 64.4 °F 88% 29.92 in 10.0 mi SSE 11.5 mph - N/A   Overcast
2:55 AM 68.0 °F 64.4 °F 88% 29.91 in 10.0 mi SE 10.4 mph - N/A   Mostly Cloudy
3:15 AM 68.0 °F 64.4 °F 88% 29.91 in 10.0 mi SE 6.9 mph - N/A   Mostly Cloudy
3:35 AM 68.0 °F 64.4 °F 88% 29.90 in 10.0 mi SE 6.9 mph - N/A   Overcast
3:55 AM 68.0 °F 64.4 °F 88% 29.90 in 10.0 mi SE 8.1 mph - N/A   Overcast
4:15 AM 68.0 °F 64.4 °F 88% 29.89 in 10.0 mi SE 8.1 mph - N/A   Overcast
4:35 AM 68.0 °F 66.2 °F 94% 29.90 in 10.0 mi SSE 6.9 mph - N/A   Overcast
4:55 AM 68.0 °F 66.2 °F 94% 29.90 in 10.0 mi SSE 8.1 mph - N/A   Overcast
5:15 AM 68.0 °F 66.2 °F 94% 29.90 in 10.0 mi SSE 9.2 mph - N/A   Overcast
5:35 AM 68.0 °F 66.2 °F 94% 29.91 in 10.0 mi SSE 10.4 mph - N/A   Overcast
5:55 AM 68.0 °F 66.2 °F 94% 29.90 in 10.0 mi SE 9.2 mph - N/A   Overcast
6:15 AM 68.0 °F 66.2 °F 94% 29.91 in 10.0 mi SE 11.5 mph 16.1 mph N/A   Overcast
6:35 AM 68.0 °F 66.2 °F 94% 29.90 in 10.0 mi SE 10.4 mph - N/A   Overcast
6:55 AM 68.0 °F 66.2 °F 94% 29.90 in 10.0 mi SE 11.5 mph 16.1 mph N/A   Overcast
7:15 AM 68.0 °F 66.2 °F 94% 29.91 in 10.0 mi SE 11.5 mph - N/A   Overcast
7:35 AM 68.0 °F 66.2 °F 94% 29.91 in 10.0 mi SE 10.4 mph - N/A   Overcast
7:55 AM 68.0 °F 66.2 °F 94% 29.92 in 10.0 mi SE 12.7 mph - N/A   Overcast
8:15 AM 69.8 °F 68.0 °F 94% 29.92 in 10.0 mi SE 12.7 mph 17.3 mph N/A   Mostly Cloudy
8:35 AM 69.8 °F 66.2 °F 88% 29.92 in 10.0 mi SE 11.5 mph 17.3 mph N/A   Scattered Clouds
8:55 AM 69.8 °F 68.0 °F 94% 29.93 in 10.0 mi SE 15.0 mph 18.4 mph N/A   Scattered Clouds
9:15 AM 71.6 °F 68.0 °F 88% 29.92 in 10.0 mi SSE 15.0 mph 18.4 mph N/A   Scattered Clouds
9:35 AM 71.6 °F 66.2 °F 83% 29.92 in 10.0 mi SSE 18.4 mph 24.2 mph N/A   Scattered Clouds
9:55 AM 73.4 °F 66.2 °F 78% 29.93 in 10.0 mi SSE 17.3 mph 25.3 mph N/A   Scattered Clouds
10:15 AM 73.4 °F 66.2 °F 78% 29.94 in 10.0 mi SSE 18.4 mph 25.3 mph N/A   Mostly Cloudy
10:35 AM 73.4 °F 66.2 °F 78% 29.94 in 10.0 mi SE 18.4 mph 25.3 mph N/A   Mostly Cloudy
10:55 AM 73.4 °F 66.2 °F 78% 29.95 in 10.0 mi SSE 18.4 mph 25.3 mph N/A   Mostly Cloudy
11:15 AM 73.4 °F 64.4 °F 73% 29.95 in 10.0 mi SE 21.9 mph 26.5 mph N/A   Mostly Cloudy
11:35 AM 75.2 °F 64.4 °F 69% 29.95 in 10.0 mi SSE 23.0 mph 29.9 mph N/A   Mostly Cloudy
11:55 AM 75.2 °F 64.4 °F 69% 29.94 in 10.0 mi SE 20.7 mph 27.6 mph N/A   Scattered Clouds
12:15 PM 73.4 °F 64.4 °F 73% 29.95 in 10.0 mi SSE 21.9 mph 26.5 mph N/A   Mostly Cloudy
12:35 PM 73.4 °F 64.4 °F 73% 29.95 in 10.0 mi SSE 20.7 mph 26.5 mph N/A   Mostly Cloudy
12:55 PM 77.0 °F 64.4 °F 65% 29.94 in 10.0 mi SSE 18.4 mph 26.5 mph N/A   Scattered Clouds
1:15 PM 77.0 °F 64.4 °F 65% 29.94 in 10.0 mi SSE 21.9 mph 27.6 mph N/A   Scattered Clouds
1:35 PM 77.0 °F 64.4 °F 65% 29.93 in 10.0 mi SE 20.7 mph 26.5 mph N/A   Scattered Clouds
1:55 PM 77.0 °F 64.4 °F 65% 29.92 in 10.0 mi SSE 19.6 mph 27.6 mph N/A   Scattered Clouds
2:15 PM 77.0 °F 64.4 °F 65% 29.92 in 10.0 mi SSE 19.6 mph 28.8 mph N/A   Clear
2:35 PM 77.0 °F 64.4 °F 65% 29.92 in 10.0 mi SSE 21.9 mph 29.9 mph N/A   Clear
2:55 PM 77.0 °F 64.4 °F 65% 29.92 in 10.0 mi SSE 23.0 mph 27.6 mph N/A   Clear
3:15 PM 77.0 °F 64.4 °F 65% 29.92 in 10.0 mi SE 21.9 mph 27.6 mph N/A   Scattered Clouds
3:35 PM 77.0 °F 64.4 °F 65% 29.91 in 10.0 mi SE 19.6 mph - N/A   Scattered Clouds
3:55 PM 77.0 °F 64.4 °F 65% 29.91 in 10.0 mi SE 15.0 mph 27.6 mph N/A   Scattered Clouds
4:15 PM 75.2 °F 64.4 °F 69% 29.90 in 10.0 mi SE 17.3 mph 25.3 mph N/A   Scattered Clouds
4:35 PM 75.2 °F 64.4 °F 69% 29.89 in 10.0 mi SSE 20.7 mph 27.6 mph N/A   Scattered Clouds
4:55 PM 73.4 °F 64.4 °F 73% 29.88 in 10.0 mi SSE 18.4 mph - N/A   Mostly Cloudy
5:15 PM 73.4 °F 64.4 °F 73% 29.88 in 10.0 mi SE 16.1 mph 25.3 mph N/A   Scattered Clouds
5:35 PM 73.4 °F 64.4 °F 73% 29.87 in 10.0 mi SE 15.0 mph 23.0 mph N/A   Scattered Clouds
5:55 PM 73.4 °F 64.4 °F 73% 29.88 in 10.0 mi SE 12.7 mph 18.4 mph N/A   Mostly Cloudy
6:15 PM 73.4 °F 64.4 °F 73% 29.88 in 10.0 mi SE 12.7 mph 19.6 mph N/A   Overcast
6:35 PM 73.4 °F 64.4 °F 73% 29.88 in 10.0 mi SE 12.7 mph 17.3 mph N/A   Overcast
6:55 PM 73.4 °F 64.4 °F 73% 29.89 in 10.0 mi SE 12.7 mph 18.4 mph N/A   Overcast
7:15 PM 71.6 °F 64.4 °F 78% 29.87 in 10.0 mi SE 12.7 mph 20.7 mph N/A   Overcast
7:35 PM 71.6 °F 64.4 °F 78% 29.88 in 10.0 mi SE 12.7 mph 18.4 mph N/A   Overcast
7:55 PM 71.6 °F 64.4 °F 78% 29.87 in 10.0 mi ESE 12.7 mph 20.7 mph N/A   Overcast
8:15 PM 71.6 °F 64.4 °F 78% 29.87 in 10.0 mi ESE 16.1 mph 20.7 mph N/A   Overcast
8:35 PM 71.6 °F 64.4 °F 78% 29.88 in 10.0 mi ESE 11.5 mph 17.3 mph N/A   Overcast
8:55 PM 71.6 °F 66.2 °F 83% 29.89 in 10.0 mi ESE 11.5 mph - N/A   Overcast
9:15 PM 71.6 °F 66.2 °F 83% 29.89 in 10.0 mi ESE 10.4 mph 17.3 mph N/A   Overcast
9:35 PM 71.6 °F 66.2 °F 83% 29.89 in 10.0 mi SE 12.7 mph 21.9 mph N/A   Overcast
9:55 PM 71.6 °F 66.2 °F 83% 29.89 in 10.0 mi ESE 12.7 mph 19.6 mph N/A   Overcast
10:15 PM 71.6 °F 66.2 °F 83% 29.89 in 10.0 mi SE 11.5 mph 21.9 mph N/A   Overcast
10:35 PM 69.8 °F 66.2 °F 88% 29.89 in 10.0 mi SE 11.5 mph 19.6 mph N/A   Mostly Cloudy
10:55 PM 69.8 °F 66.2 °F 88% 29.88 in 10.0 mi ESE 11.5 mph 18.4 mph N/A   Scattered Clouds
11:15 PM 69.8 °F 66.2 °F 88% 29.89 in 10.0 mi SE 15.0 mph 19.6 mph N/A   Scattered Clouds
11:35 PM 69.8 °F 66.2 °F 88% 29.89 in 10.0 mi SE 15.0 mph 20.7 mph N/A   Scattered Clouds
11:55 PM 69.8 °F 66.2 °F 88% 29.89 in 10.0 mi SE 12.7 mph 20.7 mph N/A   Scattered Clouds